CW6132 Weather Reports


time (UTC)temp
F
wind
direction
speed
knots
gust
knots
rain 1hr
in
rain 24hr
in
rain mn
in
humidity
%
barometer
mb
20260502182204 74 339 0.9 2.6 0.00 2.60 0.00 53 1017.6
20260502181704 74 275 1.7 5.2 0.00 2.77 0.00 53 1017.7
20260502181203 74 19 0.9 4.3 0.00 2.80 0.00 53 1017.7
20260502180705 74 203 0.9 5.2 0.00 2.80 0.00 53 1017.8
20260502180204 74 114 0.9 2.6 0.00 2.83 0.00 53 1018.0
20260502170204 71 60 0.9 4.3 0.00 3.23 0.00 59 1018.4
20260502164203 71 129 0.9 4.3 0.00 3.23 0.00 59 1018.2
20260502163704 71 216 0.9 4.3 0.00 3.23 0.00 62 1018.2
20260502162704 70 91 0.9 2.6 0.00 3.30 0.00 64 1018.2
20260502162204 70 263 0.9 2.6 0.00 3.63 0.00 64 1018.2
20260502161704 69 243 0.0 2.6 0.00 3.63 0.00 65 1018.2
20260502161204 69 301 0.9 2.6 0.00 3.63 0.00 64 1018.3
20260502160704 68 267 0.9 5.2 0.00 3.63 0.00 65 1018.2
20260502160204 68 40 0.9 5.2 0.00 3.63 0.00 66 1018.2
20260502152204 66 95 0.9 1.7 0.00 3.74 0.00 71 1018.1
20260502151704 66 98 0.9 2.6 0.00 3.74 0.00 73 1018.2
20260502151204 66 83 0.9 4.3 0.00 3.74 0.00 73 1018.2
20260502150704 65 111 0.9 2.6 0.00 3.74 0.00 75 1018.2
20260502150204 65 87 0.9 2.6 0.00 3.74 0.00 76 1018.2
20260502130705 55 126 1.7 2.6 0.00 3.82 0.00 97 1016.9
20260502130204 54 71 0.9 1.7 0.00 3.82 0.00 98 1016.9
20260502123704 53 101 0.9 1.7 0.00 3.82 0.00 98 1016.6
20260502123203 53 130 0.9 1.7 0.00 3.83 0.00 98 1016.6
20260502122704 53 91 0.0 0.9 0.00 3.84 0.00 98 1016.5
20260502122204 53 123 0.9 0.9 0.00 3.84 0.00 98 1016.3
20260502121705 53 97 0.9 2.6 0.00 3.84 0.00 98 1016.2
20260502121204 53 144 0.9 1.7 0.00 3.84 0.00 98 1016.3
20260502120704 53 123 0.9 0.9 0.00 3.84 0.00 98 1016.3
20260502120204 53 110 0.0 0.9 0.00 3.84 0.00 98 1016.2
20260502115703 53 107 0.9 0.9 0.00 3.84 0.00 98 1016.2
20260502115204 53 118 0.9 0.9 0.00 3.84 0.00 98 1016.1
20260502114704 53 115 0.9 1.7 0.00 3.84 0.00 98 1016.1
20260502114204 53 79 0.0 0.9 0.00 3.84 0.00 98 1016.2
20260502112705 53 54 0.9 1.7 0.00 3.84 0.00 98 1016.0
20260502112204 53 157 0.9 0.9 0.00 3.84 0.00 97 1015.9
20260502111204 53 84 0.0 0.9 0.00 3.84 0.00 97 1015.8
20260502110704 53 131 0.9 0.9 0.00 3.84 0.00 97 1015.7
20260502110204 53 89 0.9 0.9 0.00 3.84 0.00 97 1015.6
20260502105705 53 152 0.0 0.9 0.00 3.84 0.00 97 1015.5
20260502105204 53 98 0.0 0.9 0.00 3.84 0.00 97 1015.5
20260502104704 53 149 0.9 1.7 0.00 3.84 0.00 97 1015.4
20260502104204 53 144 0.0 0.9 0.00 3.84 0.00 97 1015.3
20260502103704 53 128 0.9 1.7 0.00 3.84 0.00 97 1015.2
20260502103203 53 124 0.9 1.7 0.00 3.84 0.00 97 1015.2
20260502102204 53 172 0.9 0.9 0.00 3.84 0.00 96 1015.1
20260502101704 53 137 0.9 1.7 0.00 3.90 0.00 96 1015.0
20260502101203 53 106 0.0 0.9 0.00 3.90 0.00 96 1014.9
20260502100704 54 107 0.0 0.9 0.00 3.90 0.00 96 1014.8
20260502100204 54 165 0.9 1.7 0.00 3.90 0.00 95 1014.6
20260502090704 55 79 0.9 1.7 0.00 4.12 0.00 93 1014.0
20260502090204 55 78 0.9 1.7 0.00 4.12 0.00 93 1013.8
20260502071204 55 88 0.9 1.7 0.00 4.29 0.00 99 1013.8
20260502070204 55 119 0.9 2.6 0.00 4.32 0.00 99 1013.8
20260502065704 55 112 0.9 1.7 0.00 4.32 0.00 99 1013.8
20260502064704 55 109 0.9 1.7 0.00 4.33 0.00 99 1013.7
20260502064204 55 95 0.9 1.7 0.00 4.33 0.00 99 1013.7
20260502063704 55 89 0.9 1.7 0.00 4.33 0.00 99 1013.6
20260502063204 55 112 0.9 1.7 0.00 4.33 0.00 99 1013.5
20260502062204 56 89 0.9 2.6 0.00 4.38 0.00 99 1013.6
20260502061706 56 33 2.6 2.6 0.00 4.38 0.00 99 1013.6
20260502061204 56 32 1.7 2.6 0.00 4.38 0.00 99 1013.5
20260502060704 56 26 1.7 2.6 0.00 4.38 0.00 99 1013.5
20260502060204 56 26 2.6 4.3 0.00 4.38 0.00 99 1013.3
20260502055704 56 36 1.7 2.6 0.00 4.38 0.00 99 1013.3
20260502055204 56 33 1.7 2.6 0.00 4.39 0.00 99 1013.4
20260502054703 56 36 1.7 2.6 0.00 4.39 0.00 99 1013.4
20260502053705 56 32 1.7 2.6 0.00 4.40 0.00 99 1013.4
20260502053204 56 36 2.6 4.3 0.00 4.40 0.00 99 1013.4
20260502052704 56 34 1.7 2.6 0.00 4.41 0.00 99 1013.4
20260502052204 56 39 1.7 2.6 0.00 4.43 0.00 99 1013.5
20260502051704 56 35 2.6 4.3 0.00 4.48 0.00 99 1013.4
20260502051204 56 29 2.6 2.6 0.00 4.48 0.00 99 1013.5
20260502050704 56 33 1.7 2.6 0.00 4.49 0.00 99 1013.4
20260502050204 56 39 1.7 2.6 0.00 4.49 0.00 100 1013.4
20260502045704 56 35 1.7 2.6 0.00 4.49 3.95 100 1013.4
20260502045204 56 31 2.6 2.6 0.00 4.49 3.95 100 1013.4
20260502044704 56 32 1.7 4.3 0.00 4.49 3.95 100 1013.5
20260502043704 56 30 1.7 2.6 0.02 4.49 3.95 100 1013.6
20260502043204 56 30 1.7 2.6 0.02 4.49 3.95 100 1013.5
20260502042704 56 34 2.6 2.6 0.02 4.49 3.95 100 1013.5
20260502042204 56 30 1.7 2.6 0.02 4.49 3.95 100 1013.4
20260502041704 56 36 2.6 2.6 0.02 4.49 3.95 100 1013.4
20260502040703 56 32 1.7 4.3 0.02 4.49 3.95 100 1013.4
20260502040204 56 32 1.7 2.6 0.02 4.49 3.95 100 1013.4
20260502035704 56 25 2.6 2.6 0.02 4.49 3.95 100 1013.4
20260502035204 56 34 2.6 2.6 0.02 4.49 3.95 100 1013.1
20260502034704 56 33 1.7 2.6 0.02 4.49 3.95 100 1013.1
20260502033704 56 44 2.6 2.6 0.00 4.47 3.93 100 1013.0
20260502033204 56 40 1.7 2.6 0.00 4.47 3.93 100 1013.1
20260502032704 57 48 2.6 2.6 0.00 4.47 3.93 100 1012.9
20260502032204 57 42 2.6 2.6 0.03 4.47 3.93 100 1012.5
20260502031204 57 44 1.7 2.6 0.03 4.47 3.93 100 1011.9
20260502030204 57 38 1.7 2.6 0.09 4.47 3.93 100 1011.8
20260502025704 57 42 1.7 2.6 0.09 4.47 3.93 100 1011.9
20260502025204 58 43 2.6 2.6 0.09 4.47 3.93 100 1012.0
20260502024703 58 37 1.7 2.6 0.09 4.47 3.93 100 1011.7
20260502024204 58 38 2.6 2.6 0.09 4.47 3.93 100 1011.6
20260502023704 58 33 1.7 2.6 0.09 4.47 3.93 100 1011.6
20260502023204 58 28 2.6 6.1 0.09 4.47 3.93 100 1011.6
20260502022704 58 27 2.6 7.0 0.09 4.47 3.93 100 1011.6
20260502021704 58 21 1.7 4.3 0.08 4.44 3.90 100 1011.9
20260502021204 58 33 1.7 7.0 0.09 4.44 3.90 100 1011.6
20260502020704 58 89 2.6 6.1 0.09 4.44 3.90 100 1011.5
20260502020204 58 54 2.6 6.1 0.03 4.38 3.84 100 1011.6
20260502015204 58 112 5.2 7.0 0.03 4.38 3.84 100 1011.6
20260502014704 59 108 4.3 7.0 0.03 4.38 3.84 100 1011.2
20260502013704 59 90 1.7 7.8 0.03 4.38 3.84 100 1011.0
20260502013206 59 86 1.7 4.3 0.10 4.38 3.84 100 1010.5
20260502012704 59 31 1.7 4.3 0.10 4.38 3.84 100 1010.5
20260502012204 59 43 2.6 4.3 0.08 4.36 3.82 100 1010.4
20260502011204 59 75 2.6 7.0 0.08 4.35 3.81 100 1010.7
20260502010704 59 82 3.5 4.3 0.07 4.35 3.81 100 1010.7
20260502010204 59 75 2.6 4.3 0.16 4.35 3.81 100 1010.7
20260502005704 59 92 2.6 4.3 0.16 4.35 3.81 100 1010.4
20260502005204 59 82 1.7 4.3 0.16 4.35 3.81 100 1009.9
20260502004704 59 85 1.7 4.3 0.16 4.35 3.81 100 1009.5
20260502004204 59 72 1.7 2.6 0.16 4.35 3.81 100 1009.3
20260502003704 59 82 2.6 4.3 0.16 4.35 3.81 100 1009.2
20260502003204 59 88 2.6 4.3 0.17 4.28 3.74 100 1009.4
20260502002704 59 86 1.7 2.6 0.17 4.28 3.74 100 1009.5
20260502002204 59 69 1.7 2.6 0.17 4.28 3.74 100 1009.5
20260502000704 59 91 1.7 4.3 0.17 4.28 3.74 100 1009.4
20260502000204 59 98 2.6 5.2 0.28 4.19 3.65 100 1009.5
20260501235703 59 90 2.6 5.2 0.28 4.19 3.65 99 1009.6
20260501235204 60 107 4.3 7.0 0.28 4.19 3.65 100 1009.4
20260501234704 60 103 3.5 5.2 0.28 4.19 3.65 100 1008.8
20260501234204 60 100 3.5 6.1 0.28 4.19 3.65 100 1008.4
20260501233703 60 89 4.3 5.2 0.28 4.19 3.65 100 1008.3
20260501232204 60 111 2.6 4.3 0.10 4.11 3.57 100 1009.4
20260501231204 61 97 2.6 2.6 0.10 4.11 3.57 100 1009.1
20260501230704 60 83 1.7 2.6 0.10 4.11 3.57 100 1008.7
20260501230204 61 86 2.6 4.3 0.08 3.91 3.37 100 1008.3
20260501225704 61 87 1.7 2.6 0.02 3.91 3.37 100 1008.5
20260501224203 61 105 1.7 2.6 0.30 3.91 3.37 100 1008.4
20260501223704 61 80 2.6 4.3 0.30 3.91 3.37 100 1008.4
20260501223205 61 50 2.6 4.3 0.30 3.91 3.37 100 1008.2
20260501222704 61 67 2.6 5.2 0.30 3.91 3.37 100 1008.3
20260501222205 61 73 2.6 4.3 0.39 3.91 3.47 100 1008.5
20260501221704 62 63 2.6 4.3 0.40 3.91 3.47 100 1008.6
20260501221204 62 66 2.6 4.3 0.33 3.91 3.47 100 1008.5
20260501220704 62 97 2.6 4.3 0.33 3.91 3.47 100 1008.3
20260501220204 62 112 2.6 2.6 0.25 3.82 3.38 100 1008.8
20260501215703 62 113 2.6 4.3 0.38 3.79 3.35 100 1009.1
20260501214704 62 107 2.6 5.2 0.10 3.51 3.07 100 1008.7
20260501214204 62 117 5.2 6.1 0.10 3.51 3.07 100 1008.8
20260501213204 62 108 4.3 6.1 0.36 3.51 3.07 100 1008.7
20260501212704 62 111 4.3 5.2 0.36 3.51 3.07 100 1008.8
20260501211703 62 100 2.6 2.6 0.35 3.50 3.07 100 1008.4
20260501211204 62 101 2.6 2.6 0.43 3.50 3.14 100 1008.3
20260501210704 62 111 2.6 4.3 0.43 3.50 3.14 100 1007.9
20260501210204 62 98 2.6 2.6 0.43 3.50 3.14 100 1007.4
20260501205704 62 123 2.6 2.6 0.32 3.33 2.97 100 1007.2
20260501204704 62 120 2.6 5.2 0.43 3.33 2.97 100 1007.3
20260501204204 62 98 2.6 4.3 0.43 3.33 2.97 100 1007.6
20260501202704 63 204 13.9 34.8 0.46 2.85 2.71 100 1008.0
20260501202204 62 159 17.4 44.3 0.46 2.85 2.71 100 1008.4
20260501201703 62 156 8.7 44.3 0.46 2.85 2.71 100 1007.6
20260501201204 62 175 4.3 42.6 0.48 2.85 2.71 100 1006.7
20260501200205 63 164 4.3 34.8 0.48 2.85 2.71 100 1006.8
20260501195704 63 176 2.6 6.1 0.42 2.79 2.65 100 1007.2
20260501195203 63 178 2.6 4.3 0.36 2.72 2.59 100 1007.1
20260501194704 63 172 2.6 5.2 0.67 2.68 2.54 100 1007.3
20260501194204 63 177 2.6 24.3 0.67 2.68 2.54 100 1007.1
20260501192704 63 137 2.6 4.3 0.49 2.39 2.25 100 1006.9
20260501192204 62 180 2.6 4.3 0.50 2.39 2.26 100 1007.2
20260501191704 62 171 1.7 4.3 0.67 2.38 2.25 100 1007.3
20260501190204 63 178 1.7 4.3 0.70 2.36 2.23 100 1006.4
20260501185704 63 166 2.6 4.3 0.80 2.36 2.23 100 1007.1
20260501184705 63 192 2.6 6.1 0.44 2.00 1.87 100 1008.4
20260501184204 63 213 2.6 6.1 0.45 2.00 1.87 100 1009.7
20260501183703 63 198 1.7 4.3 0.32 1.89 1.76 100 1007.7
20260501183204 63 222 1.7 2.6 0.32 1.89 1.76 100 1006.3